Regional Weather Roundup
Issued by NWS

Home | Current Version | Previous Version | Graphics & Text | Print | Product List | Glossary On
Versions: 1 2 3 4 5 6 7 8 9 10 11 12 13 14 15 16 17 18 19 20 21 22 23 24 25 26 27 28 29 30 31 32 33 34 35 36 37 38 39 40 41 42 43 44 45 46 47 48 49 50
000
ASUS43 KTOP 180059
RWRKS

WEATHER ROUNDUP FOR KANSAS
NATIONAL WEATHER SERVICE GOODLAND KS
700 PM CST SUN DEC 17 2017

NOTE:  "FAIR" INDICATES FEW OR NO CLOUDS BELOW 12,000 FEET WITH NO
SIGNIFICANT WEATHER AND/OR OBSTRUCTIONS TO VISIBILITY.

KSZ001>006-013>018-027>032-041>047-180200-
NORTHWEST KANSAS

CITY           SKY/WX    TMP DP  RH WIND       PRES   REMARKS
GOODLAND       CLOUDY    30  23  75 SW6       29.97R
HAYS           CLOUDY    31  27  85 W3        30.03R
HILL CITY      CLOUDY    32  26  78 CALM      30.01R
RUSSELL        CLOUDY    35  28  75 W5        30.00R
$$

KSZ061>065-074>080-084>089-180200-
SOUTHWEST KANSAS

CITY           SKY/WX    TMP DP  RH WIND       PRES   REMARKS
DODGE CITY     CLOUDY    30  22  72 NW5       30.02R
GARDEN CITY    CLOUDY    30  22  72 E5        30.01R
GREAT BEND     CLOUDY    31  24  75 NW3       30.02R
LIBERAL        CLOUDY    31  23  72 CALM      30.03R
$$

KSZ066>073-081>083-090>101-180200-
SOUTHEAST KANSAS

CITY           SKY/WX    TMP DP  RH WIND       PRES   REMARKS
CHANUTE        CLOUDY    46  44  93 S6        30.06R
COFFEYVILLE    CLOUDY    45  43  93 S6        30.07R
HUTCHINSON     CLEAR     38  36  92 SE7       30.01R
MEDICINE LODGE   N/A     40  35  83 S5        30.02R
NEWTON         CLOUDY    41  38  89 S9        30.03R
PARSONS        CLOUDY    45  44  97 S6        30.07R
WICHITA INTL   PTCLDY    41  37  86 S7        30.03R
WICHITA JABRA  CLOUDY    45  40  82 S9        30.03R
WICHITA MCCONL CLOUDY    45  38  77 SW7       30.03S
WINFIELD       CLOUDY    46  43  89 S8        30.05R
$$

KSZ007>012-019>026-033>040-048>060-102>105-180200-
NORTHEAST KANSAS

CITY           SKY/WX    TMP DP  RH WIND       PRES   REMARKS
CONCORDIA      CLEAR     37  29  72 NW3       30.00R
EMPORIA        PTCLDY    43  39  86 SW10      30.01R
LAWRENCE       CLOUDY    48  44  86 S8        30.02R
MANHATTAN      CLOUDY    48  39  71 N5        29.99R
OLATHE IND     CLOUDY    44  43  96 S6        30.03R
OLATHE EXE     CLOUDY    44  42  93 S6        30.02R
SALINA         PTCLDY    42  31  64 W6        30.01R
TOPEKA BILLARD CLOUDY    48  45  89 S8        30.00R
TOPEKA FORBES  CLOUDY    48  44  86 S9        30.00R
$$




USA.gov is the U.S. government's official web portal to all federal, state and local government web resources and services.